Home > Weather > Taloyoak > Past weeks

Flag for Canada Past Weather in Taloyoak, Nunavut, Canada — Yesterday and Last 2 Weeks

Now
45 °F

Sprinkles. Partly sunny.


Feels Like: 39 °F
Forecast: 36 / 48 °F
Wind: 10 mph from East

Location: Spence Bay Airport

Current Time: Jul 1, 2016 at 12:14:05 AM

Latest Report: Jun 30, 2016 at 11:00 PM


Visibility: 15 mi

Pressure: 30.07 "Hg

Humidity: 93%

Dew Point: 43 °F

Location of TaloyoakLocation

Past Weather in Taloyoak — Graph

°F

Taloyoak Temperature Yesterday

Maximum temperature yesterday: 52 °F (at 7:00 PM)
Minimum temperature yesterday: 39 °F (at 6:00 AM)
Average temperature yesterday: 45 °F

High & Low Weather Summary for the Past Weeks

 TemperatureHumidityPressure
High64 °F (Jun 28, 1:00 PM)100% (Jun 16, 6:00 AM)30.09 "Hg (Jun 16, 6:00 AM)
Low34 °F (Jun 19, 12:00 AM)50% (Jun 24, 2:00 PM)28.96 "Hg (Jun 18, 6:00 AM)
Average44 °F81%29.78 "Hg
* Reported Jun 15 11:00 PM — Jun 30 11:00 PM, Taloyoak, Weather by CustomWeather, © 2016

Note: Actual official high and low records may vary slightly from our data, if they occured in-between our weather recording intervals... More about our weather records

Advertising

Taloyoak Weather History for the Previous 24 Hours

Scroll right to see more
 ConditionsComfort  
Time TempWeatherWind HumidityBarometerVisibility
11:00 PM
Thu, Jun 30
45 °FSprinkles. Partly sunny.10 mph93%30.07 "Hg15 mi
10:00 PM46 °FScattered showers. Partly sunny.9 mph82%30.05 "Hg15 mi
9:00 PM50 °FPartly sunny.12 mph88%30.04 "Hg15 mi
8:00 PM52 °FPartly sunny.13 mph82%30.03 "Hg15 mi
7:00 PM52 °FBroken clouds.13 mph77%30.02 "Hg15 mi
6:00 PM48 °FPartly sunny.14 mph76%30.02 "Hg15 mi
5:00 PM46 °FBroken clouds.13 mph76%30.03 "Hg15 mi
4:00 PM50 °FBroken clouds.17 mph71%30.03 "Hg15 mi
3:00 PM48 °FBroken clouds.17 mph76%30.03 "Hg15 mi
2:00 PM46 °FBroken clouds.8 mph76%30.05 "Hg15 mi
1:00 PM46 °FPartly sunny.14 mph76%30.05 "Hg15 mi
12:00 PM46 °FPartly sunny.15 mph76%30.05 "Hg15 mi
11:00 AM45 °FPartly sunny.12 mph76%30.06 "Hg15 mi
10:00 AM45 °FPartly sunny.14 mph76%30.06 "Hg15 mi
9:00 AM41 °FBroken clouds.10 mph87%30.07 "Hg15 mi
8:52 AM43 °FBroken clouds.13 mph81%30.07 "Hg15 mi
8:00 AM43 °FScattered showers. Broken clouds.10 mph81%30.07 "Hg15 mi
7:00 AM39 °FScattered showers. Partly sunny.5 mph87%30.09 "Hg15 mi
6:00 AM39 °FScattered showers. Broken clouds.5 mph87%30.08 "Hg15 mi
5:00 AM45 °FScattered showers. Broken clouds.7 mph87%30.08 "Hg15 mi
4:00 AM43 °FScattered showers. Broken clouds.5 mph81%30.07 "Hg15 mi
3:00 AM43 °FScattered showers. Broken clouds.3 mph81%30.06 "Hg15 mi
2:00 AM43 °FScattered showers. Partly sunny.6 mph81%30.05 "Hg15 mi
1:00 AM43 °FScattered showers. Scattered clouds.12 mph81%30.04 "Hg15 mi
12:00 AM43 °FScattered showers. Scattered clouds.9 mph81%30.03 "Hg15 mi
Weather by CustomWeather, © 2016

See weather overviewHow to use our weather pages